Precipitable_Water
1.64 1.58 1.72 1.73 1.32 1.25 1.07 1.19 1.29 1.16 1.05 1.33 1.07 1.07 1.01 1.05 0.93 0.72 1.45 1.60 1.67 1.74 1.79 1.72 1.64 1.61 1.49 1.52 1.56 1.51 1.48 1.46 1.60 1.59 1.51 1.55 1.54 1.53 1.64 1.76 1.79 1.91 1.92 1.81 1.71 1.75 1.77 1.71 1.75
1.58 1.61 1.64 1.48 1.16 0.99 1.03 1.30 1.17 1.22 1.20 1.22 1.25 1.27 1.19 1.01 1.36 1.31 1.35 1.63 1.71 1.74 1.73 1.62 1.43 1.44 1.56 1.50 1.48 1.60 1.56 1.53 1.51 1.57 1.62 1.70 1.71 1.77 1.87 1.92 1.93 1.98 1.91 1.89 1.83 1.80 1.79 1.77 1.79
1.45 1.73 1.48 1.42 1.28 1.01 1.05 1.31 1.33 1.26 1.28 1.18 1.16 1.48 1.29 1.23 1.33 1.35 1.57 1.66 1.70 1.66 1.51 1.37 1.57 1.78 1.77 1.81 1.79 1.76 1.72 1.75 1.68 1.71 1.70 1.68 1.80 1.83 1.90 1.87 1.93 1.92 1.87 1.84 1.72 1.72 1.67 1.68 1.78
1.80 1.78 1.76 1.33 1.14 1.28 1.25 1.34 1.43 1.19 1.19 1.21 1.11 0.99 1.33 1.54 1.35 1.48 1.61 1.60 1.50 1.38 1.48 1.59 1.71 1.76 1.82 1.82 1.88 1.91 1.94 1.91 1.79 1.77 1.79 1.81 1.83 1.84 1.88 1.90 1.89 1.91 1.84 1.70 1.61 1.58 1.60 1.67 1.82
1.90 1.78 1.28 1.27 1.24 1.35 1.46 1.51 1.31 1.14 1.03 0.95 0.94 0.92 1.09 1.44 1.53 1.52 1.47 1.39 1.21 1.34 1.65 1.71 1.73 1.75 1.74 1.76 1.79 1.84 1.87 1.90 1.81 1.76 1.76 1.74 1.83 1.88 1.90 1.90 1.90 1.81 1.77 1.70 1.58 1.55 1.57 1.71 1.78
1.58 1.69 1.21 1.10 1.23 1.45 1.55 1.53 1.31 1.18 1.07 0.95 0.84 0.88 1.05 1.42 1.38 1.45 1.37 1.23 1.26 1.39 1.67 1.74 1.75 1.74 1.74 1.72 1.78 1.77 1.76 1.68 1.61 1.65 1.59 1.62 1.79 1.88 1.85 1.90 1.81 1.79 1.73 1.62 1.53 1.55 1.54 1.70 1.74
1.52 1.48 1.24 1.23 1.25 1.42 1.47 1.48 1.31 1.26 0.99 0.86 0.95 0.81 1.14 1.31 1.48 1.57 1.52 1.44 1.46 1.54 1.63 1.69 1.70 1.71 1.67 1.70 1.71 1.66 1.62 1.60 1.57 1.58 1.59 1.68 1.79 1.82 1.95 1.90 1.74 1.64 1.59 1.49 1.43 1.47 1.55 1.65 1.70
1.65 1.64 1.21 1.27 1.23 1.29 1.48 1.43 1.37 1.20 1.05 1.15 1.06 0.84 0.97 1.37 1.58 1.64 1.63 1.48 1.44 1.57 1.59 1.63 1.67 1.64 1.58 1.58 1.56 1.56 1.56 1.56 1.51 1.51 1.57 1.71 1.77 1.91 1.93 1.81 1.68 1.52 1.45 1.37 1.42 1.51 1.63 1.75 1.86
1.81 1.39 1.17 1.24 1.26 1.43 1.58 1.38 1.47 1.47 1.19 1.05 1.02 1.12 1.30 1.59 1.70 1.60 1.48 1.42 1.50 1.61 1.58 1.62 1.54 1.51 1.50 1.51 1.55 1.57 1.64 1.62 1.55 1.44 1.56 1.69 1.72 1.83 1.81 1.85 1.70 1.70 1.54 1.47 1.52 1.51 1.57 1.72 1.85
1.51 1.22 1.32 1.47 1.38 1.43 1.51 1.49 1.48 1.35 1.24 1.06 1.04 1.32 1.44 1.53 1.64 1.53 1.44 1.36 1.48 1.56 1.62 1.68 1.49 1.41 1.50 1.50 1.56 1.67 1.70 1.68 1.58 1.50 1.54 1.61 1.70 1.75 1.77 1.84 1.88 1.79 1.71 1.69 1.63 1.56 1.58 1.67 1.71
1.47 1.43 1.52 1.54 1.54 1.58 1.54 1.55 1.67 1.43 1.28 1.09 0.96 1.08 1.24 1.39 1.45 1.50 1.46 1.46 1.60 1.61 1.49 1.46 1.52 1.46 1.59 1.51 1.49 1.61 1.78 1.60 1.55 1.60 1.65 1.66 1.71 1.75 1.78 1.78 1.73 1.61 1.67 1.66 1.70 1.66 1.71 1.79 1.65
1.26 1.43 1.63 1.60 1.66 1.53 1.50 1.64 1.58 1.60 1.43 1.36 1.18 1.16 1.23 1.26 1.34 1.32 1.41 1.42 1.52 1.60 1.59 1.58 1.66 1.64 1.61 1.50 1.47 1.60 1.63 1.65 1.50 1.55 1.64 1.61 1.65 1.63 1.65 1.73 1.75 1.58 1.57 1.57 1.67 1.61 1.61 1.65 1.67
1.33 1.48 1.59 1.66 1.55 1.54 1.56 1.56 1.56 1.53 1.61 1.50 1.27 1.22 1.19 1.22 1.22 1.34 1.37 1.55 1.56 1.47 1.50 1.61 1.65 1.69 1.65 1.59 1.50 1.48 1.59 1.64 1.59 1.61 1.74 1.68 1.69 1.74 1.75 1.72 1.77 1.65 1.56 1.63 1.55 1.55 1.60 1.48 1.42
1.44 1.52 1.56 1.54 1.49 1.54 1.42 1.54 1.58 1.57 1.65 1.53 1.28 1.24 1.21 1.16 1.16 1.25 1.40 1.40 1.57 1.62 1.48 1.65 1.68 1.70 1.68 1.57 1.52 1.52 1.64 1.59 1.54 1.59 1.80 1.87 1.75 1.74 1.74 1.74 1.79 1.68 1.56 1.58 1.54 1.52 1.56 1.48 1.39
1.34 1.26 1.46 1.43 1.43 1.35 1.46 1.33 1.38 1.62 1.64 1.47 1.35 1.31 1.28 1.23 1.30 1.29 1.37 1.41 1.52 1.52 1.52 1.44 1.54 1.65 1.72 1.70 1.63 1.54 1.59 1.64 1.69 1.71 1.83 1.84 1.82 1.74 1.76 1.80 1.69 1.70 1.72 1.62 1.61 1.59 1.59 1.44 1.48
1.15 1.28 1.05 1.28 1.42 1.44 1.30 1.08 1.53 1.68 1.55 1.40 1.34 1.30 1.28 1.25 1.37 1.45 1.48 1.49 1.50 1.44 1.39 1.46 1.55 1.55 1.56 1.67 1.63 1.62 1.57 1.62 1.75 1.69 1.75 1.73 1.68 1.69 1.77 1.68 1.69 1.76 1.79 1.65 1.58 1.52 1.45 1.39 1.40
0.84 0.88 0.96 1.14 1.36 1.35 1.29 1.05 1.50 1.64 1.62 1.50 1.38 1.24 1.22 1.23 1.28 1.47 1.52 1.47 1.46 1.44 1.39 1.38 1.47 1.46 1.61 1.69 1.69 1.76 1.75 1.63 1.59 1.66 1.80 1.72 1.77 1.69 1.73 1.68 1.73 1.76 1.65 1.60 1.55 1.59 1.50 1.40 1.40
0.68 0.81 0.95 0.98 1.26 1.34 1.24 1.10 1.28 1.45 1.56 1.52 1.39 1.26 1.26 1.29 1.29 1.37 1.39 1.44 1.47 1.44 1.45 1.37 1.36 1.48 1.64 1.68 1.88 1.83 1.84 1.75 1.77 1.71 1.63 1.65 1.74 1.71 1.61 1.56 1.54 1.67 1.65 1.67 1.62 1.52 1.53 1.34 1.28
0.68 0.67 0.72 1.07 1.34 1.37 1.26 1.16 1.31 1.54 1.60 1.60 1.47 1.33 1.33 1.30 1.30 1.38 1.45 1.42 1.41 1.34 1.35 1.32 1.22 1.36 1.54 1.56 1.61 1.68 1.74 1.75 1.76 1.80 1.91 1.86 1.71 1.76 1.72 1.74 1.69 1.54 1.52 1.60 1.66 1.56 1.49 1.33 1.41
0.63 0.65 0.78 1.08 1.30 1.26 1.29 1.20 1.28 1.48 1.53 1.54 1.47 1.41 1.36 1.37 1.32 1.33 1.40 1.39 1.35 1.28 1.23 1.30 1.26 1.23 1.45 1.54 1.66 1.66 1.72 1.71 1.77 1.79 1.74 1.75 1.76 1.73 1.68 1.59 1.53 1.58 1.55 1.53 1.54 1.50 1.31 1.30 1.35
0.59 0.57 0.61 0.74 1.15 1.26 1.09 1.08 1.07 1.37 1.54 1.63 1.58 1.56 1.44 1.36 1.33 1.32 1.31 1.33 1.37 1.26 1.22 1.22 1.29 1.32 1.32 1.54 1.61 1.67 1.67 1.71 1.75 1.75 1.70 1.72 1.77 1.78 1.79 1.63 1.75 1.65 1.31 1.44 1.58 1.51 1.35 1.20 1.33
0.47 0.59 0.56 0.68 0.75 0.77 1.12 0.72 1.00 1.29 1.36 1.45 1.48 1.54 1.51 1.46 1.45 1.41 1.36 1.29 1.30 1.30 1.33 1.23 1.18 1.31 1.34 1.42 1.49 1.54 1.46 1.43 1.62 1.71 1.85 1.73 1.74 1.78 1.72 1.75 1.67 1.48 1.28 1.36 1.63 1.55 1.40 1.36 1.31
0.37 0.59 0.49 0.63 0.73 0.84 0.92 0.76 0.85 1.14 1.18 1.34 1.40 1.45 1.50 1.57 1.58 1.51 1.45 1.39 1.34 1.33 1.35 1.31 1.23 1.22 1.33 1.40 1.49 1.48 1.54 1.55 1.70 1.74 1.90 1.78 1.84 1.72 1.62 1.69 1.71 1.67 1.56 1.41 1.42 1.47 1.41 1.49 1.43
0.33 0.52 0.50 0.77 0.85 0.67 0.77 0.76 0.83 0.92 1.03 1.24 1.45 1.46 1.49 1.58 1.67 1.69 1.67 1.52 1.44 1.41 1.40 1.39 1.32 1.16 1.28 1.37 1.57 1.56 1.46 1.59 1.67 1.74 1.80 1.96 1.81 1.79 1.76 1.66 1.66 1.70 1.61 1.48 1.34 1.49 1.40 1.49 1.45
0.32 0.43 0.34 0.42 0.50 0.50 0.74 0.74 0.78 1.04 1.21 1.19 1.18 1.32 1.45 1.56 1.72 1.71 1.69 1.52 1.49 1.48 1.47 1.42 1.41 1.18 1.18 1.34 1.51 1.52 1.56 1.72 1.71 1.72 1.87 1.77 1.76 1.68 1.69 1.69 1.64 1.56 1.60 1.46 1.46 1.37 1.47 1.47 1.41
0.29 0.40 0.31 0.29 0.34 0.49 0.73 0.60 0.76 1.10 1.27 1.35 1.36 1.37 1.48 1.51 1.62 1.65 1.80 1.68 1.62 1.60 1.55 1.50 1.39 1.29 1.17 1.14 1.39 1.48 1.57 1.64 1.80 1.81 1.85 1.74 1.82 1.67 1.76 1.79 1.73 1.61 1.53 1.47 1.51 1.32 1.35 1.36 1.38
0.27 0.34 0.42 0.40 0.52 0.51 0.61 0.79 0.96 1.15 1.15 1.21 1.24 1.34 1.36 1.50 1.62 1.68 1.84 1.83 1.79 1.76 1.63 1.54 1.47 1.39 1.08 1.05 1.28 1.39 1.55 1.59 1.70 1.77 1.82 1.81 1.93 1.97 1.86 1.89 1.81 1.70 1.61 1.48 1.59 1.46 1.32 1.28 1.35
0.31 0.42 0.37 0.41 0.41 0.42 0.53 0.64 0.67 0.89 0.96 1.12 1.12 1.19 1.31 1.49 1.53 1.69 1.82 1.89 1.98 1.95 1.79 1.68 1.61 1.49 1.11 1.05 1.14 1.28 1.47 1.55 1.60 1.70 1.73 1.73 1.75 1.73 1.92 2.04 1.84 1.54 1.55 1.66 1.61 1.50 1.49 1.40 1.43
0.29 0.31 0.41 0.46 0.51 0.42 0.43 0.58 0.99 0.93 1.03 1.06 1.14 1.27 1.35 1.42 1.50 1.62 1.77 1.81 1.93 2.00 1.93 1.87 1.81 1.65 1.41 1.22 1.18 1.24 1.36 1.39 1.36 1.39 1.61 1.61 1.63 1.65 1.83 1.98 1.97 1.69 1.49 1.60 1.58 1.59 1.59 1.44 1.42
0.35 0.31 0.38 0.39 0.43 0.52 0.57 0.60 1.08 1.12 1.18 1.24 1.22 1.34 1.41 1.46 1.51 1.59 1.70 1.80 1.89 1.96 2.02 1.97 2.00 1.84 1.67 1.47 1.45 1.42 1.37 1.41 1.43 1.34 1.44 1.59 1.56 1.67 1.71 1.79 1.78 1.66 1.67 1.67 1.60 1.60 1.58 1.53 1.62
Wind_Speed
5 5 2 2 4 7 8 8 10 8 11 14 16 12 12 11 10 7 18 17 18 18 17 15 15 14 13 12 11 10 10 9 9 9 9 9 10 10 10 10 10 11 12 12 13 13 14 14 15
6 4 0 1 2 6 7 9 11 11 14 18 14 13 11 9 8 17 17 18 18 17 16 14 13 13 12 12 11 11 10 10 10 10 10 10 11 12 12 12 12 13 13 13 14 14 14 13 13
6 2 1 2 1 8 10 11 12 16 17 15 13 11 9 9 17 17 19 19 19 17 16 15 14 13 12 12 11 11 11 11 12 12 12 12 12 12 12 13 13 14 14 14 14 14 14 14 14
4 1 1 1 2 9 11 12 10 15 13 10 13 10 12 15 16 19 20 20 18 17 16 16 15 14 13 12 12 12 12 13 13 13 12 13 13 13 13 14 15 15 16 15 14 14 14 14 14
2 2 3 1 5 13 13 13 14 11 10 12 14 13 14 16 20 21 21 19 18 17 17 16 15 14 13 13 12 12 13 12 12 12 12 13 13 14 15 15 15 16 15 15 15 14 14 14 13
1 2 2 4 16 15 9 11 15 14 15 16 18 19 15 22 23 21 20 19 18 17 16 15 14 14 13 13 13 13 12 12 12 12 13 13 14 15 16 15 15 15 14 15 15 14 14 15 15
1 6 3 14 16 12 15 14 16 16 19 14 19 20 19 22 21 21 19 18 17 17 15 15 14 14 13 13 13 13 13 13 12 13 13 14 15 16 16 16 15 14 14 15 15 15 14 14 14
1 5 7 12 15 13 16 13 16 16 15 19 21 15 21 22 22 20 18 17 17 15 14 14 14 14 14 14 14 14 14 14 14 14 15 15 16 16 16 16 16 15 15 15 15 15 14 14 13
1 1 7 10 15 14 13 15 13 14 18 17 9 19 23 23 22 20 19 18 16 15 14 14 14 14 14 15 15 16 15 15 15 15 16 16 17 17 17 16 16 16 16 16 15 15 15 15 16
3 3 9 9 14 13 15 14 13 15 17 15 19 21 23 23 21 20 17 17 16 14 14 13 13 14 15 15 16 17 16 16 16 17 17 17 17 17 17 16 15 14 15 15 15 14 14 15 15
3 5 8 9 13 14 15 13 13 16 11 17 21 22 23 22 20 18 19 16 16 14 14 14 14 14 15 15 15 15 15 16 16 17 17 17 17 16 15 15 15 15 14 14 14 14 13 13 13
2 4 5 8 14 14 15 13 12 12 12 17 20 21 21 20 19 18 17 16 15 14 14 14 14 14 14 14 14 14 15 15 16 16 16 16 15 15 14 13 13 11 12 12 12 13 13 13 13
6 4 4 10 12 14 14 11 11 14 17 19 20 20 20 18 18 18 16 16 15 14 13 14 13 13 13 13 13 14 14 13 14 14 15 15 14 14 13 12 12 12 12 12 12 13 13 14 14
9 8 10 10 11 13 11 11 11 13 15 19 20 19 18 17 17 17 17 17 14 13 12 13 12 11 12 13 13 13 12 13 13 13 12 12 12 12 12 11 11 11 12 12 12 13 13 14 14
11 9 9 10 11 9 11 8 12 16 17 19 19 18 17 16 17 18 17 17 15 13 12 12 11 10 11 11 11 11 11 12 12 12 12 12 11 11 11 12 12 12 12 12 13 13 13 13 14
11 8 11 11 11 10 6 7 11 15 19 18 19 18 17 18 17 18 18 17 15 13 13 12 12 10 11 11 11 10 11 10 10 11 11 11 11 10 11 11 10 11 11 12 13 13 13 12 12
13 11 10 12 15 10 6 9 15 16 19 20 19 18 16 19 19 18 18 16 15 14 13 11 12 11 12 12 11 10 10 9 9 10 9 9 10 10 10 10 10 10 10 11 11 10 10 9 9
12 11 10 12 16 11 7 7 12 15 21 23 20 20 16 19 20 18 18 17 16 14 13 11 13 12 12 10 10 9 9 8 8 8 8 8 8 8 8 9 9 8 10 9 9 8 8 8 8
14 11 12 9 13 9 8 7 11 15 17 21 20 21 17 20 18 20 19 17 16 14 14 12 14 13 12 10 11 9 9 8 7 7 6 6 7 7 8 8 7 8 8 8 8 7 7 7 7
15 14 9 6 11 9 5 9 9 14 19 20 22 20 21 19 20 19 19 18 16 15 15 14 14 14 13 11 11 9 8 8 7 6 5 5 7 7 7 7 8 7 7 7 7 6 6 7 7
17 16 15 11 9 7 7 9 12 15 16 19 20 19 21 23 22 19 19 19 16 16 16 16 15 15 14 12 11 9 7 7 6 6 5 5 6 7 7 7 7 6 7 8 7 6 6 6 5
18 18 16 14 14 12 11 7 7 17 18 20 21 19 17 22 23 21 19 19 18 17 16 16 17 16 15 14 12 9 9 8 8 7 5 5 6 7 7 7 6 6 7 7 6 6 6 6 5
21 18 16 18 12 11 14 7 8 12 16 21 21 20 18 20 20 23 22 19 19 18 17 17 17 18 17 16 13 10 9 10 9 7 6 5 6 6 6 6 6 6 7 7 6 6 6 5 5
22 17 14 12 11 10 14 12 10 16 16 17 20 22 19 21 21 22 20 21 19 19 18 17 17 18 18 17 15 12 10 11 9 9 8 6 5 6 6 6 6 6 6 7 7 7 6 6 6
21 17 14 13 12 12 10 13 15 19 18 17 19 23 22 22 24 23 20 22 21 20 19 19 18 19 19 19 17 14 12 12 10 9 9 8 7 7 6 6 6 6 6 6 7 7 7 6 6
21 22 18 15 13 11 8 13 10 17 17 15 16 15 17 23 23 23 21 20 21 22 21 20 19 18 20 21 19 16 15 13 11 10 10 9 8 8 8 7 6 6 6 6 6 6 7 7 6
22 20 21 15 12 11 11 11 10 11 14 13 13 15 16 21 23 24 24 24 20 21 22 21 20 19 21 22 20 18 16 16 13 11 11 10 10 8 10 8 7 6 7 7 6 6 6 7 7
23 22 18 15 16 15 13 12 12 14 13 15 13 12 13 16 19 21 26 26 23 19 20 22 21 20 20 22 22 20 18 17 16 14 13 12 11 10 10 8 9 7 8 8 7 6 6 6 7
21 23 19 17 18 15 12 12 13 14 13 14 13 13 12 13 17 20 24 25 25 21 20 22 22 21 20 21 22 22 20 19 18 17 16 15 14 13 12 10 10 9 9 8 8 7 6 6 6
24 24 24 19 19 15 12 13 12 14 14 14 14 14 13 12 13 15 21 22 21 23 18 20 22 22 21 21 22 22 21 20 19 18 17 16 15 15 14 12 11 12 11 10 9 9 8 7 7
Wind_Direction
161 151 126 42 53 114 114 109 122 130 117 141 136 122 133 103 115 113 131 131 132 130 129 127 126 125 125 125 122 119 117 115 109 108 105 103 102 103 102 101 101 104 105 101 101 101 101 102 100
156 147 70 14 61 138 129 126 125 121 120 125 134 120 114 115 98 125 128 133 131 128 128 124 124 124 123 123 119 117 117 112 113 109 107 104 104 102 102 101 100 104 106 105 103 101 101 104 104
165 189 345 318 128 165 138 140 127 121 124 127 118 117 113 113 120 127 129 131 128 126 123 120 117 122 122 121 118 115 114 113 111 109 108 106 105 103 102 101 103 104 105 105 103 103 100 99 99
169 204 314 275 149 157 150 144 137 122 118 122 125 105 112 124 125 128 130 129 127 124 121 118 113 112 115 118 118 115 114 112 110 110 108 106 105 104 103 105 104 105 103 103 101 103 102 101 100
192 292 238 317 163 155 142 137 136 125 112 119 128 128 122 127 128 129 129 128 125 122 119 117 113 110 111 114 116 117 116 114 111 110 108 107 107 106 107 107 103 107 102 101 100 103 101 98 101
232 341 143 130 142 145 152 149 145 122 120 116 117 128 124 132 131 130 128 126 124 122 119 116 111 110 110 111 114 117 117 116 112 110 109 109 110 109 109 107 104 105 99 101 103 102 100 98 97
263 17 81 133 149 139 141 138 139 128 124 125 126 125 131 136 133 132 128 125 125 122 118 115 111 108 107 108 111 114 115 114 113 111 112 112 112 111 111 107 104 102 100 101 103 104 102 99 98
111 47 118 142 154 147 142 136 136 136 122 126 128 134 141 139 138 131 128 128 126 123 120 115 112 109 107 107 108 110 111 111 112 113 113 113 113 113 111 108 103 101 100 100 102 103 101 98 101
85 28 158 147 164 148 157 143 136 135 131 136 132 138 139 139 139 135 129 126 125 123 121 116 114 111 109 108 108 108 106 106 108 113 115 113 113 112 111 108 104 101 100 100 100 100 100 99 102
103 99 156 154 151 160 158 153 150 143 140 132 131 139 143 143 142 141 135 132 128 125 126 121 116 115 112 109 109 109 106 105 106 110 113 113 112 112 111 108 104 104 100 102 97 100 100 100 104
167 126 141 162 158 158 157 155 157 151 151 147 145 147 150 150 148 146 144 140 135 127 121 122 119 117 114 113 112 109 106 105 108 111 112 111 112 111 111 109 105 101 100 102 100 100 101 101 104
142 66 150 160 158 159 159 157 165 181 168 151 149 150 152 154 157 153 148 146 140 135 130 126 122 119 114 115 114 111 109 108 108 112 113 115 112 110 108 111 104 104 104 107 100 99 100 101 107
203 185 164 143 154 158 156 163 166 159 159 155 155 155 158 159 158 160 156 153 146 140 137 135 128 124 119 119 115 115 112 110 113 114 117 114 114 114 106 108 107 104 103 106 104 104 101 102 104
178 156 149 149 145 157 159 159 169 178 169 162 164 165 166 163 162 160 161 159 154 150 145 144 141 129 129 122 120 119 114 113 115 116 118 123 120 114 108 110 110 108 104 108 107 106 105 103 108
194 183 168 165 156 159 154 168 176 176 176 168 172 173 174 171 168 166 165 164 160 157 152 153 152 144 144 136 132 126 121 117 114 116 120 118 118 119 114 113 108 107 109 109 110 108 109 107 109
197 186 180 191 175 169 167 197 176 182 179 183 179 179 179 177 170 173 168 166 164 161 158 152 153 145 146 147 142 133 130 124 120 116 117 120 117 119 118 120 113 111 109 114 111 111 107 111 112
209 203 204 196 198 181 194 161 196 197 192 189 186 183 179 180 176 176 175 174 174 169 166 162 160 149 144 141 140 140 140 132 127 128 127 127 125 124 125 126 121 120 119 121 120 114 114 112 115
205 205 208 215 205 201 197 204 185 195 196 190 190 187 180 176 178 178 178 178 176 175 175 172 169 163 156 151 153 144 142 137 134 131 128 136 133 130 129 137 131 124 127 126 122 120 119 115 117
215 228 244 224 190 209 218 184 199 187 187 193 191 190 187 183 179 179 180 181 181 182 179 176 176 179 172 164 159 156 150 155 148 146 135 142 142 138 135 142 144 131 136 133 131 123 117 119 118
215 223 219 171 191 201 212 207 214 208 201 196 192 193 192 185 181 181 187 185 186 189 189 187 184 180 180 177 170 162 164 162 154 148 147 147 159 152 149 148 146 145 146 143 139 133 132 124 116
217 220 223 216 197 231 226 256 251 217 203 200 198 193 195 191 189 188 189 193 193 193 193 193 193 190 190 184 180 180 176 172 168 164 154 148 155 162 157 157 155 151 154 153 146 133 132 133 123
224 224 229 204 218 226 206 245 217 200 202 197 193 193 198 197 197 195 192 195 199 199 198 198 198 196 194 193 192 194 193 191 183 179 165 160 158 158 158 163 163 163 160 161 160 156 141 140 117
219 229 235 219 214 211 222 224 226 189 205 203 201 196 199 199 201 202 200 201 202 201 200 200 200 201 199 199 200 201 199 192 192 185 178 166 165 168 165 170 171 167 174 176 172 162 156 147 135
220 226 225 207 214 234 224 211 222 203 203 195 204 206 205 206 205 203 212 209 206 203 202 201 203 204 204 202 202 201 196 191 194 197 193 179 177 176 173 169 174 175 177 180 181 173 175 165 158
213 208 219 219 218 227 197 209 228 211 199 196 197 206 206 207 206 210 208 209 207 204 204 205 205 207 207 206 206 206 204 199 202 199 199 195 189 187 183 175 175 179 185 186 185 188 188 181 181
211 206 210 214 221 219 219 224 230 215 207 207 207 206 210 208 210 211 208 209 208 210 209 208 209 212 210 209 210 210 210 208 208 208 202 209 203 195 190 190 186 186 187 187 190 194 197 199 204
216 211 214 213 216 207 225 239 232 203 208 204 206 210 214 213 219 216 214 207 208 214 212 210 211 215 213 211 212 212 213 213 212 209 208 207 205 211 208 210 210 206 196 194 194 198 197 209 215
210 210 212 219 201 223 233 217 228 211 212 207 210 209 219 220 219 223 209 208 213 215 215 217 215 217 215 214 214 215 215 215 217 217 218 215 213 216 210 215 207 209 206 204 203 205 211 214 219
215 210 212 213 208 212 218 228 235 207 202 202 209 217 215 217 223 221 210 210 215 218 221 220 219 221 217 215 214 216 217 219 221 223 223 222 223 221 216 218 217 214 207 209 212 214 216 214 220
213 213 212 212 219 215 221 226 216 204 204 205 207 208 216 219 221 214 205 211 211 214 219 222 223 218 217 217 217 217 218 219 222 223 223 225 223 222 222 223 217 218 219 220 219 221 223 227 233